Wind_Speed
5 5 6 6 7 7 7 6 6 7 7 7 6 6 6 6 6 6 6 7 7 8 8 9 10 11 12 11 11 12 12 14 15 15 16 16 16 16 16 16 15 16 16
5 5 6 7 7 7 7 7 6 6 6 6 6 6 5 5 5 5 6 6 7 7 8 8 9 10 11 11 12 12 13 14 15 15 15 16 16 16 16 16 16 17 17
5 5 6 7 7 7 7 6 6 6 6 5 5 5 5 4 4 4 5 5 6 7 8 8 8 9 10 11 12 13 14 15 15 15 15 15 16 17 16 16 16 17 17
4 5 6 7 7 7 7 7 7 6 6 5 5 5 4 4 4 4 4 5 5 6 7 8 9 9 9 11 12 12 13 14 15 15 15 16 16 17 16 16 16 17 18
4 5 5 7 7 7 7 7 7 7 6 6 5 5 5 4 4 4 4 5 5 5 6 7 8 9 9 10 10 11 12 14 15 15 15 16 17 17 16 16 17 17 17
4 4 5 6 7 7 7 7 7 7 7 6 6 5 4 4 4 4 4 4 5 5 6 7 7 8 9 10 10 10 11 13 15 15 15 16 17 17 17 17 17 17 17
3 4 5 6 7 7 8 8 8 7 7 7 6 6 5 4 4 3 4 4 5 5 6 7 8 8 10 11 10 10 11 12 14 16 16 17 17 17 18 18 18 18 19
3 4 5 5 6 7 7 7 8 7 7 7 7 6 5 5 4 4 3 4 5 5 6 7 7 8 9 11 12 12 12 13 14 16 17 18 18 18 18 19 19 19 20
3 4 4 5 6 7 7 7 7 7 7 7 6 6 6 5 5 5 4 4 5 5 6 7 7 8 10 11 12 13 13 14 15 15 17 18 19 18 18 19 19 20 20
3 3 4 5 6 6 7 7 7 7 7 7 7 6 6 6 5 5 5 5 5 6 6 7 8 9 10 11 12 13 14 16 16 16 17 18 19 19 19 20 20 21 21
4 4 5 5 6 6 7 7 6 7 7 7 7 7 6 6 6 6 6 7 7 7 8 8 9 10 10 11 12 13 14 16 17 17 18 18 19 20 20 20 21 21 22
4 4 5 6 6 6 7 7 7 6 7 7 7 7 7 7 7 7 7 8 8 9 9 9 10 11 11 12 12 14 15 16 17 18 19 20 20 21 21 21 22 22 23
4 4 5 5 6 6 7 7 7 7 7 8 8 8 8 8 8 8 8 8 9 9 10 11 11 12 12 13 14 14 15 16 17 18 20 21 22 22 22 23 23 24 24
5 4 5 5 6 6 7 7 7 8 8 8 9 9 10 10 10 10 10 10 10 11 11 12 12 13 14 15 16 16 17 18 19 19 20 20 22 23 23 25 26 25 26
6 5 5 5 6 6 7 8 8 9 9 9 10 11 11 11 12 12 12 12 12 12 13 14 14 14 15 16 17 18 19 19 20 20 21 21 22 23 24 25 26 27 27
7 6 6 6 7 7 7 8 9 9 10 11 11 12 13 13 13 13 14 14 14 14 15 15 15 16 16 17 17 19 20 21 22 22 23 23 24 25 26 27 28 28 28
7 7 7 7 7 8 8 9 10 11 11 12 13 13 14 14 14 14 15 15 15 16 16 16 17 17 18 18 19 20 21 22 23 24 25 26 26 27 27 27 28 29 29
9 9 9 8 9 9 10 11 12 13 13 14 14 15 16 16 16 16 17 17 17 18 18 18 19 19 20 20 21 22 23 24 25 26 27 27 28 28 28 28 30 31 31
10 10 10 10 10 11 12 12 13 14 15 16 16 17 17 17 17 18 18 19 19 19 20 20 21 21 22 23 24 24 25 26 27 28 29 30 30 30 31 32 32 33 34
11 11 11 11 12 13 14 15 16 16 17 18 18 18 19 19 19 20 20 20 21 21 22 23 23 24 25 26 26 27 28 28 29 30 31 32 32 32 33 33 33 34 35
12 12 12 13 14 14 16 16 17 18 19 19 19 20 20 21 21 22 22 23 23 24 24 25 26 27 27 28 29 29 30 30 31 31 32 33 33 33 34 35 35 35 36
13 14 14 15 16 17 17 18 19 20 21 21 21 21 22 23 23 24 25 25 26 27 27 28 28 29 29 30 30 31 31 32 32 33 33 33 34 34 35 36 37 37 38
14 15 16 17 17 18 19 20 21 22 22 22 23 23 24 24 25 26 27 28 28 29 30 30 30 31 31 32 32 33 33 33 34 34 34 35 35 37 38 38 39 40 41
15 16 17 18 19 20 21 22 22 23 24 24 24 25 26 27 27 28 29 30 30 31 31 32 32 33 33 34 35 35 36 36 37 37 37 37 38 39 40 42 43 44 44
16 17 18 19 20 21 22 23 24 25 26 26 27 28 29 30 31 31 32 32 33 33 34 34 35 36 37 37 37 38 38 39 39 40 41 41 42 43 43 44 46 47 48
18 19 20 21 22 23 24 25 26 27 28 29 30 31 31 33 34 35 35 35 36 36 37 37 38 39 39 40 40 40 41 41 42 42 43 45 45 46 46 47 48 49 50
Wind_Direction
351 348 348 350 348 347 340 333 329 326 320 312 306 300 296 285 274 268 258 251 250 248 246 240 235 232 230 224 221 218 216 216 215 215 218 220 219 218 219 220 222 222 221
356 353 358 356 349 344 342 337 333 332 328 324 319 313 306 296 279 269 259 254 251 248 245 242 236 233 230 222 224 222 218 218 218 218 220 222 222 222 223 223 224 225 224
354 358 1 356 351 349 345 343 343 341 337 330 328 326 317 307 291 276 261 256 252 250 246 242 238 232 229 226 227 227 223 220 222 221 221 223 224 225 226 225 226 228 228
355 360 2 359 357 358 356 353 351 349 343 338 331 324 315 305 294 279 264 257 252 250 249 244 238 234 232 230 231 229 225 226 224 224 223 223 225 226 227 228 230 232 232
357 360 1 2 5 5 4 2 360 357 352 348 340 329 318 306 297 285 271 260 257 253 250 246 240 236 234 233 232 231 229 228 226 225 224 225 225 227 229 233 236 237 237
359 1 360 3 4 3 4 3 4 1 359 358 355 345 332 317 305 291 276 265 259 254 249 246 243 239 235 234 228 228 229 228 228 227 228 228 229 231 232 235 237 237 238
354 358 360 2 0 3 3 1 0 359 359 360 359 354 346 333 318 303 285 272 264 259 255 250 249 244 238 234 229 229 229 233 233 232 234 235 235 237 239 240 240 241 240
346 353 354 355 356 360 1 3 3 2 1 1 1 358 349 339 327 316 302 288 279 271 265 260 253 251 245 239 235 237 236 238 238 237 237 238 241 242 242 242 244 243 243
333 344 349 351 357 2 2 3 3 5 4 2 1 358 355 348 338 325 316 307 295 285 275 266 260 256 254 250 243 241 240 242 245 245 240 240 243 248 247 246 246 247 248
320 331 342 347 354 359 0 2 1 359 0 360 356 351 350 349 344 335 324 315 306 299 292 278 267 263 261 257 254 251 247 245 248 251 248 248 248 250 250 249 249 250 250
312 323 333 338 346 352 356 358 357 354 354 356 354 349 347 346 343 335 324 316 309 301 297 290 279 271 266 263 261 258 257 253 252 255 255 255 252 253 252 252 250 250 251
313 321 328 333 340 346 352 355 353 351 349 347 346 343 339 337 333 329 322 317 312 305 297 293 286 279 272 268 267 265 261 258 257 257 257 257 258 256 254 255 253 253 254
309 316 326 330 335 340 345 349 349 347 343 340 338 336 334 329 327 322 316 313 310 305 299 294 288 282 277 273 271 269 267 264 263 262 261 260 261 259 257 256 257 257 258
302 306 314 319 327 333 336 340 342 340 337 335 334 333 331 329 326 322 317 312 308 305 301 296 290 284 279 276 274 271 269 270 269 267 265 264 263 263 262 260 258 257 258
293 298 302 306 315 323 329 331 333 335 335 334 333 330 328 325 322 320 317 312 308 305 303 298 293 289 283 278 275 273 270 270 270 270 271 270 268 266 264 264 261 260 259
286 291 295 298 306 316 324 328 328 330 330 331 331 330 328 325 321 317 313 310 308 305 303 300 295 292 287 283 279 277 275 272 271 272 272 272 272 270 268 266 265 264 262
282 284 288 293 301 308 313 318 321 322 323 323 323 324 324 323 321 317 315 312 309 306 303 301 297 292 289 286 283 281 280 278 276 274 274 274 273 272 270 267 265 264 263
278 281 285 291 297 302 307 311 314 315 316 317 317 317 317 316 315 314 312 310 308 306 304 301 298 294 291 288 287 284 283 280 278 276 275 274 273 271 270 268 266 266 265
274 278 283 287 293 298 302 306 308 310 311 312 313 313 313 312 312 311 310 308 306 304 302 300 298 295 293 291 288 286 283 282 280 278 275 274 273 272 272 270 269 267 266
273 277 281 285 291 296 300 303 305 307 309 309 310 311 311 310 309 308 307 306 305 303 301 299 296 294 292 291 289 287 284 282 281 279 277 275 274 273 272 271 269 268 267
271 276 280 285 290 295 299 302 305 306 307 307 308 309 309 308 308 307 306 304 303 301 300 298 296 294 293 292 290 288 286 284 283 281 280 278 276 274 272 270 269 268 268
273 278 282 287 292 295 299 301 304 304 305 306 307 307 307 307 307 307 306 304 302 301 299 298 297 296 294 293 291 289 288 286 285 284 282 281 279 277 274 272 270 270 270
276 280 284 288 292 296 298 301 302 303 304 305 306 306 306 306 306 306 305 304 302 301 300 299 298 296 295 294 292 291 289 288 286 284 282 282 281 280 279 278 275 273 272
279 283 287 290 293 296 298 300 301 303 305 305 305 306 306 306 305 304 303 302 301 300 299 299 298 297 295 294 292 291 289 288 287 284 282 281 280 280 280 280 279 277 275
281 286 290 292 295 297 299 301 302 303 304 305 305 306 305 305 304 303 302 301 300 299 298 298 297 297 296 295 294 292 290 289 288 287 285 283 281 280 280 280 280 279 277
285 288 291 294 295 297 299 300 301 302 303 304 305 305 305 304 303 302 301 300 299 298 298 298 297 297 296 295 295 293 292 290 289 288 287 285 284 282 280 279 279 278 277
Height
5879 5878 5877 5876 5875 5873 5872 5871 5870 5869 5868 5867 5866 5866 5866 5866 5865 5866 5866 5867 5867 5868 5869 5870 5871 5872 5874 5874 5876 5877 5879 5880 5882 5885 5887 5889 5891 5893 5894 5896 5898 5899 5900
5879 5878 5877 5876 5874 5873 5871 5870 5869 5868 5867 5866 5865 5865 5864 5864 5864 5864 5865 5865 5866 5866 5867 5868 5869 5871 5872 5873 5874 5875 5877 5879 5881 5883 5885 5887 5889 5891 5892 5894 5895 5897 5898
5879 5878 5877 5876 5874 5872 5871 5870 5868 5867 5866 5865 5864 5863 5863 5862 5862 5863 5863 5864 5864 5865 5865 5866 5867 5868 5870 5871 5872 5873 5875 5877 5878 5880 5883 5885 5887 5888 5890 5891 5893 5894 5895
5879 5878 5877 5876 5874 5872 5871 5869 5868 5867 5865 5864 5863 5863 5862 5861 5861 5861 5862 5862 5862 5863 5864 5864 5866 5867 5868 5869 5870 5871 5873 5874 5876 5878 5880 5882 5884 5886 5887 5889 5890 5892 5893
5879 5878 5877 5875 5874 5872 5871 5869 5868 5866 5865 5864 5863 5862 5861 5860 5860 5860 5860 5861 5861 5862 5862 5863 5864 5865 5866 5867 5868 5869 5870 5871 5873 5875 5877 5879 5881 5883 5884 5886 5888 5889 5890
5878 5877 5876 5875 5874 5872 5871 5869 5867 5866 5865 5863 5862 5861 5860 5859 5859 5859 5859 5860 5860 5860 5861 5862 5862 5864 5865 5866 5866 5866 5867 5869 5870 5873 5875 5877 5878 5880 5881 5883 5885 5886 5887
5878 5877 5876 5875 5874 5872 5871 5869 5867 5866 5864 5863 5862 5860 5859 5859 5858 5858 5858 5858 5859 5859 5860 5860 5861 5862 5863 5864 5864 5864 5865 5867 5868 5870 5872 5874 5875 5877 5878 5879 5881 5882 5884
5878 5877 5876 5875 5873 5872 5870 5869 5867 5866 5864 5863 5862 5860 5859 5859 5858 5858 5858 5858 5858 5858 5858 5859 5859 5860 5861 5862 5863 5863 5864 5865 5866 5867 5869 5871 5872 5873 5874 5876 5877 5879 5880
5877 5876 5875 5874 5873 5872 5870 5868 5867 5866 5864 5863 5862 5861 5859 5858 5858 5858 5857 5857 5857 5857 5857 5857 5858 5858 5859 5860 5861 5861 5862 5863 5863 5865 5866 5868 5869 5870 5871 5872 5873 5875 5876
5876 5875 5875 5874 5873 5871 5870 5868 5867 5866 5864 5863 5861 5860 5859 5858 5858 5857 5857 5857 5856 5856 5856 5856 5856 5857 5857 5858 5858 5859 5859 5860 5861 5862 5863 5864 5865 5866 5867 5868 5869 5870 5871
5875 5875 5874 5873 5872 5871 5870 5868 5867 5865 5864 5863 5861 5860 5859 5858 5858 5857 5857 5856 5856 5855 5855 5854 5854 5855 5855 5855 5856 5856 5856 5857 5858 5858 5859 5860 5861 5862 5863 5863 5864 5865 5866
5874 5874 5873 5872 5871 5870 5869 5868 5866 5865 5864 5863 5861 5860 5859 5858 5857 5856 5856 5855 5854 5854 5853 5853 5853 5853 5853 5853 5853 5853 5853 5854 5854 5854 5855 5856 5857 5857 5858 5859 5859 5860 5860
5873 5873 5872 5871 5870 5869 5868 5867 5866 5865 5864 5862 5861 5860 5859 5857 5856 5856 5855 5854 5853 5852 5852 5851 5850 5850 5850 5850 5850 5850 5850 5850 5850 5850 5851 5851 5852 5852 5853 5853 5854 5854 5855
5872 5871 5871 5870 5869 5868 5867 5866 5865 5864 5863 5862 5860 5859 5858 5857 5855 5854 5853 5852 5851 5851 5849 5849 5848 5847 5847 5847 5847 5846 5846 5846 5845 5845 5846 5846 5846 5847 5847 5847 5848 5848 5849
5870 5870 5869 5869 5868 5867 5866 5865 5864 5863 5862 5861 5859 5858 5857 5855 5854 5853 5851 5850 5850 5848 5847 5846 5845 5844 5843 5843 5842 5842 5842 5841 5841 5841 5841 5840 5840 5840 5840 5841 5841 5842 5842
5868 5868 5867 5867 5866 5866 5865 5864 5863 5861 5860 5859 5858 5856 5855 5853 5852 5851 5849 5848 5846 5845 5844 5843 5841 5840 5839 5838 5838 5837 5837 5836 5836 5835 5835 5835 5834 5834 5834 5834 5834 5834 5834
5866 5866 5865 5865 5864 5864 5863 5862 5861 5860 5859 5857 5856 5854 5853 5851 5850 5848 5846 5845 5843 5842 5840 5839 5837 5836 5835 5834 5833 5832 5831 5830 5830 5829 5829 5828 5827 5827 5826 5825 5825 5826 5826
5863 5863 5863 5863 5862 5861 5861 5860 5859 5857 5856 5855 5853 5851 5850 5848 5846 5845 5843 5841 5839 5838 5836 5834 5833 5831 5830 5829 5827 5826 5825 5824 5823 5822 5821 5821 5820 5819 5818 5817 5817 5817 5817
5860 5860 5860 5860 5859 5859 5858 5857 5856 5854 5853 5851 5850 5848 5846 5844 5842 5840 5839 5837 5835 5833 5831 5829 5828 5826 5824 5822 5821 5819 5818 5817 5815 5814 5813 5812 5811 5810 5810 5809 5808 5808 5808
5857 5857 5857 5857 5856 5856 5855 5853 5852 5851 5849 5847 5846 5844 5842 5840 5838 5836 5834 5832 5829 5827 5825 5823 5821 5819 5817 5815 5813 5812 5810 5808 5807 5805 5804 5803 5802 5801 5800 5799 5799 5798 5798
5854 5854 5854 5853 5853 5852 5851 5850 5848 5847 5845 5843 5841 5839 5837 5835 5833 5831 5828 5826 5823 5821 5819 5817 5814 5812 5810 5807 5805 5803 5802 5800 5798 5796 5795 5793 5792 5790 5789 5788 5788 5787 5786
5850 5850 5850 5849 5849 5848 5847 5845 5844 5842 5840 5838 5836 5834 5832 5830 5827 5824 5822 5819 5817 5814 5811 5809 5806 5804 5801 5799 5796 5794 5792 5791 5789 5787 5785 5783 5781 5779 5778 5777 5776 5776 5775
5847 5846 5846 5845 5845 5843 5842 5841 5839 5837 5835 5833 5831 5829 5826 5824 5821 5818 5815 5812 5809 5806 5803 5801 5798 5795 5793 5790 5787 5785 5782 5780 5778 5776 5774 5773 5771 5769 5767 5765 5764 5763 5763
5843 5843 5842 5841 5840 5839 5837 5836 5834 5832 5829 5827 5825 5822 5820 5817 5814 5811 5808 5805 5801 5798 5795 5792 5789 5786 5783 5780 5777 5774 5772 5769 5767 5765 5762 5761 5760 5758 5756 5753 5752 5750 5749
5839 5838 5838 5837 5835 5834 5832 5830 5828 5826 5823 5820 5818 5815 5812 5809 5806 5803 5800 5797 5793 5790 5786 5782 5779 5776 5772 5769 5766 5763 5760 5757 5755 5753 5750 5748 5746 5745 5743 5740 5738 5735 5734
5835 5834 5833 5831 5830 5828 5826 5824 5821 5819 5817 5814 5811 5808 5804 5801 5797 5793 5790 5787 5783 5780 5776 5772 5769 5765 5761 5758 5754 5750 5747 5744 5742 5739 5736 5733 5731 5729 5728 5727 5723 5720 5718